Location: Bun Machan
(52.1403°N, 7.3744°W)
Time: 03:00:21
(UTC+00:00)

Cosmos 972 Rocket - Pass Details

Date: 14 July 2020
Orbit: 713 x 1151 km, 75.8° (Epoch: 04 August)

Event Time Altitude Azimuth Distance (km) Brightness Sun altitude
Rises 00:32:31 0° 337° (NNW) 3,702 8.8 -16.2°
Reaches altitude 10° 00:35:11 10° 337° (NNW) 2,683 7.9 -16.2°
Maximum altitude 00:41:20 88° 249° (WSW) 876 4.2 -16.2°
Enters shadow 00:44:49 24° 161° (SSE) 1,658 5.2 -16.2°
